Find Starlink 11630

NORAD ID: 63111 Int'l Des: 2025-039 Owner: SPXS Country: US Constellation: starlink operational
LEOCIRCULAR

リアルタイム位置

3D地球を読み込み中...

Starlink 11630について

説明を読み込み中...

次回通過

Passes for default location (London). Set your location on the main map for personalized predictions.

高度履歴

Loading altitude history...

軌道要素

1 63111U 25039H 26124.65191950 .00220376 00000-0 16734-2 0 9995
2 63111 42.9996 259.8088 0000949 157.1910 202.9000 15.70874103 68417
Epoch: May 4, 2026 • Age: 17 hours

現在のステータス

高度 353.9 km
速度 7.70 km/s
衛星直下点 13.08°N, 61.17°E
打ち上げ日 Feb 27, 2025
運用期間 1.1 years
タイプ internet

技術仕様

分類 Payload
質量 960.00 kg
乾燥質量 910.00 kg
総質量 960.00 kg
長さ 0.30 m
直径 4.10 m
スパン 29.00 m
形状 Box + pan
製造者 SPXS
バスタイプ Starlink V2MD
フェーズステータス In Orbit
所有者/国 SPXS/US

Most Searched